AirNav   Air Wisconsin pilot careers
 
 582 users online  

31AZ Benson Airport
Benson, Arizona, USA

GOING TO BENSON?


FAA INFORMATION EFFECTIVE 18 JULY 2019

Location

FAA Identifier: 31AZ
Lat/Long: 31-57-49.3000N / 110-15-35.2610W
31-57.821667N / 110-15.587683W
31.9636944 / -110.2597947
(estimated)
Elevation: 3628 ft. / 1105.8 m (surveyed)
Variation: 12E (1985)
From city: 2 miles E of BENSON, AZ
Time zone: UTC -7 (year round; does not observe DST)
Zip code: 85602

Airport Operations

Airport use: Private use. Permission required prior to landing
Activation date: 02/1947
Control tower: no
ARTCC: ALBUQUERQUE CENTER
FSS: PRESCOTT FLIGHT SERVICE STATION
Attendance: UNATNDD
Wind indicator: yes
Segmented circle: no

Airport Communications

WX AWOS-3 at E95 (5 nm NW): 118.475 (520-586-4409)

Nearby radio navigation aids

VOR radial/distance  VOR name  Freq  Var
FHUr359/23.0LIBBY VOR/DME113.6013E
TUSr091/34.2TUCSON VORTAC116.0012E

 
NDB name  Hdg/Dist  Freq  Var  ID
DRAGOO358/23.141013EDAO -.. .- ---

Airport Services

Fuel available: 100 80
Airframe service: NONE
Powerplant service: NONE
Bottled oxygen: NONE
Bulk oxygen: NONE

Runway Information

Runway 8/26

Dimensions: 4800 x 140 ft. / 1463 x 43 m
Surface: dirt, in fair condition
RUNWAY 8  RUNWAY 26
Traffic pattern: leftleft
Runway end identifier lights: nono
Obstructions: pline, 300 ft. from runway, 6:1 slope to clear
5' BRUSH AT THR; 4' BANK; AND 5' FENCE 110' FROM W END.
none

Airport Ownership and Management from official FAA records

Ownership: Privately-owned
Owner: BEN A TAYLOR
BOX 54
BENSON, AZ 85602
Phone 602-586-3421
Manager: BEN A TAYLOR
BOX 54
BENSON, AZ 85602
Phone 602-586-3421

Airport Operational Statistics

Aircraft based on the field: 8
Single engine airplanes: 8
    
Aircraft operations: avg 58/month *
71% military
14% transient general aviation
14% local general aviation
* for 12-month period ending 05 October 1990

Additional Remarks

USE AT PILOTS OWN RISK--PRIOR CONTACT RECOMMENDED.
GOPHER HOLES, SLICK & MUDDY WHEN WET
FOR CD CTC ALBUQUERQUE ARTCC AT 505-856-4861.

Instrument Procedures

There are no published instrument procedures at 31AZ.

Some nearby airports with instrument procedures:

KFHU - Sierra Vista Municipal Airport-Libby Army Airfield (23 nm S)
P33 - Cochise County Airport (25 nm NE)
KDMA - Davis Monthan Air Force Base (34 nm W)
KTUS - Tucson International Airport (36 nm W)
KOLS - Nogales International Airport (44 nm SW)
 
Loc | Ops | Rwys | IFR | FBO | Links
Com | Nav | Svcs | Stats | Notes
Area around 31AZ (Benson Airport)
 
Road maps at: MapQuest Bing Google
 
Aerial photo
No photo
 
Sectional chart

 
Airport distance calculator
Flying to Benson Airport? Find the distance to fly.

From to 31AZ

Sunrise and sunset
Times for 20-Jul-2019
 Local
(UTC-7)
 Zulu
(UTC)
Morning civil twilight05:0212:02
Sunrise05:3012:30
Sunset19:2502:25
Evening civil twilight19:5202:52

Current date and time
Zulu (UTC)  20-Jul-2019 10:44:02
Local (UTC-7)  20-Jul-2019 03:44:02
 
METAR
KFHU 
22nm S 
200958Z AUTO 10005KT 7SM CLR 22/13 A3009 RMK AO2 SLP106 T02160134 $
KDMA 
33nm W 
200958Z AUTO 17006KT 10SM FEW170 26/12 A2992 RMK AO2 SLP081 T02600124 $
KTUS 
37nm W 
200953Z 12005KT 10SM CLR 27/13 A2994 RMK AO2 SLP081 T02670128
TAF
KFHU 
22nm S 
201005Z 2010/2116 29009KT 9999 FEW100 SCT150 QNH3002INS BECMG 2017/2018 31009KT 9999 FEW100 SCT150 QNH3010INS TEMPO 2021/2101 31012G18KT BECMG 2102/2103 VRB06KT 9999 FEW150 QNH3004INS TX33/2021Z TN18/2012Z LAST NO AMDS AFT 2014 NEXT 2118
NOTAMs
Click for the latest NOTAMs
NOTAMs are issued by the DoD/FAA and will open in a separate window not controlled by AirNav.

 

 
 

Would you like to see your business listed on this page?

 If your business provides an interesting product or service to pilots, flight crews, aircraft, or users of the Benson Airport, you should consider listing it here.  To start the listing process, click on the button below
 
Add a business
 

Other Pages about Benson Airport

Update a link
 
Copyright © AirNav, LLC. All rights reserved. Privacy Policy  Contact